• In Uzbekistan
  • List of Countries
  • For 7 days
  • Water Temperature
  • Satellite Maps
  • Weather Map
  • Weather Widgets
  • user-avatar
    Login

    Hourly Weather Brisbane

    Today, 30 May, Tuesday

    Time Temperature Precipitation Wind Pressure Humidity
    00:00 +14°C° 0 mm 3 mps 764 mmHg 58%
    01:00 +14°C° 0 mm 3 mps 764 mmHg 57%
    02:00 +13°C° 0 mm 3 mps 764 mmHg 58%
    03:00 +13°C° 0 mm 3 mps 764 mmHg 60%
    04:00 +13°C° 0 mm 3 mps 764 mmHg 62%
    05:00 +13°C° 0 mm 3 mps 764 mmHg 65%
    06:00 +13°C° 0 mm 3 mps 764 mmHg 67%
    07:00 +13°C° 0 mm 3 mps 765 mmHg 70%
    08:00 +16°C° 0 mm 2 mps 765 mmHg 68%
    09:00 +18°C° 0 mm 2 mps 765 mmHg 67%
    10:00 +21°C° 0 mm 2 mps 765 mmHg 66%
    11:00 +23°C° 0.1 mm 2 mps 765 mmHg 61%
    12:00 +24°C° 0.1 mm 1 mps 764 mmHg 56%
    13:00 +25°C° 0.1 mm 1 mps 764 mmHg 51%
    14:00 +24°C° 0 mm 1 mps 763 mmHg 53%
    15:00 +24°C° 0 mm 1 mps 763 mmHg 56%
    16:00 +24°C° 0 mm 1 mps 763 mmHg 58%
    17:00 +21°C° 0 mm 1 mps 763 mmHg 63%
    18:00 +19°C° 0 mm 1 mps 764 mmHg 69%
    19:00 +15°C° 0 mm 1 mps 764 mmHg 75%
    20:00 +15°C° 0 mm 2 mps 764 mmHg 71%
    21:00 +15°C° 0 mm 2 mps 765 mmHg 68%
    22:00 +15°C° 0 mm 2 mps 765 mmHg 64%
    23:00 +13°C° 0 mm 3 mps 765 mmHg 61%

    Tomorrow, 31 May, Wednesday

    Time Temperature Precipitation Wind Pressure Humidity
    00:00 +13°C° 0 mm 3 mps 765 mmHg 58%
    01:00 +12°C° 0 mm 4 mps 765 mmHg 54%
    02:00 +12°C° 0 mm 4 mps 765 mmHg 56%
    03:00 +11°C° 0 mm 4 mps 765 mmHg 57%
    04:00 +11°C° 0 mm 4 mps 764 mmHg 58%
    05:00 +10°C° 0 mm 5 mps 765 mmHg 57%
    06:00 +9°C° 0 mm 5 mps 765 mmHg 56%
    07:00 +9°C° 0 mm 5 mps 766 mmHg 55%
    08:00 +12°C° 0 mm 5 mps 766 mmHg 50%
    09:00 +14°C° 0 mm 5 mps 766 mmHg 46%
    10:00 +17°C° 0 mm 5 mps 766 mmHg 42%
    11:00 +19°C° 0 mm 5 mps 765 mmHg 39%
    12:00 +20°C° 0 mm 5 mps 765 mmHg 36%
    13:00 +22°C° 0 mm 4 mps 764 mmHg 34%
    14:00 +21°C° 0 mm 4 mps 764 mmHg 39%
    15:00 +21°C° 0 mm 4 mps 764 mmHg 45%
    16:00 +20°C° 0 mm 3 mps 764 mmHg 50%
    17:00 +18°C° 0 mm 3 mps 765 mmHg 54%
    18:00 +16°C° 0 mm 3 mps 766 mmHg 58%
    19:00 +13°C° 0 mm 4 mps 766 mmHg 62%
    20:00 +12°C° 0 mm 4 mps 767 mmHg 64%
    21:00 +12°C° 0 mm 4 mps 767 mmHg 65%
    22:00 +11°C° 0 mm 4 mps 768 mmHg 66%
    23:00 +10°C° 0 mm 5 mps 768 mmHg 66%

    Day after tomorrow, 1 June, Thursday

    Time Temperature Precipitation Wind Pressure Humidity
    00:00 +10°C° 0 mm 5 mps 768 mmHg 66%
    01:00 +10°C° 0 mm 6 mps 768 mmHg 66%
    02:00 +9°C° 0 mm 6 mps 768 mmHg 66%
    03:00 +9°C° 0 mm 6 mps 768 mmHg 65%
    04:00 +9°C° 0 mm 6 mps 768 mmHg 65%
    05:00 +9°C° 0 mm 6 mps 768 mmHg 67%
    06:00 +8°C° 0 mm 5 mps 769 mmHg 70%
    07:00 +8°C° 0 mm 5 mps 769 mmHg 72%
    08:00 +11°C° 0 mm 6 mps 769 mmHg 68%
    09:00 +14°C° 0 mm 6 mps 769 mmHg 64%
    10:00 +16°C° 0 mm 7 mps 769 mmHg 60%
    11:00 +17°C° 0 mm 7 mps 769 mmHg 59%
    12:00 +18°C° 0 mm 7 mps 768 mmHg 57%
    13:00 +20°C° 0 mm 7 mps 768 mmHg 56%
    14:00 +20°C° 0 mm 6 mps 768 mmHg 59%
    15:00 +19°C° 0 mm 6 mps 768 mmHg 61%
    16:00 +19°C° 0 mm 6 mps 767 mmHg 64%
    17:00 +16°C° 0 mm 6 mps 768 mmHg 69%
    18:00 +15°C° 0 mm 5 mps 768 mmHg 74%
    19:00 +13°C° 0 mm 5 mps 769 mmHg 79%
    20:00 +13°C° 0 mm 5 mps 769 mmHg 79%
    21:00 +12°C° 0 mm 5 mps 769 mmHg 80%
    22:00 +12°C° 0 mm 5 mps 770 mmHg 80%
    23:00 +11°C° 0 mm 6 mps 770 mmHg 79%

    2 June, Friday

    Time Temperature Precipitation Wind Pressure Humidity
    00:00 +10°C° 0 mm 6 mps 769 mmHg 77%
    01:00 +10°C° 0 mm 6 mps 769 mmHg 76%
    02:00 +10°C° 0 mm 6 mps 769 mmHg 74%
    03:00 +9°C° 0 mm 5 mps 769 mmHg 73%
    04:00 +9°C° 0 mm 5 mps 769 mmHg 71%
    05:00 +9°C° 0 mm 5 mps 769 mmHg 72%
    06:00 +9°C° 0 mm 5 mps 769 mmHg 72%
    07:00 +9°C° 0 mm 5 mps 770 mmHg 73%
    08:00 +12°C° 0 mm 5 mps 770 mmHg 66%
    09:00 +15°C° 0 mm 5 mps 770 mmHg 59%
    10:00 +17°C° 0 mm 6 mps 770 mmHg 53%
    11:00 +19°C° 0 mm 6 mps 769 mmHg 51%
    12:00 +20°C° 0 mm 6 mps 769 mmHg 49%
    13:00 +21°C° 0 mm 6 mps 768 mmHg 47%
    14:00 +21°C° 0 mm 5 mps 768 mmHg 51%
    15:00 +20°C° 0 mm 5 mps 768 mmHg 55%
    16:00 +20°C° 0 mm 5 mps 767 mmHg 59%
    17:00 +17°C° 0 mm 5 mps 768 mmHg 65%
    18:00 +15°C° 0 mm 5 mps 768 mmHg 70%
    19:00 +13°C° 0 mm 5 mps 769 mmHg 76%
    20:00 +13°C° 0 mm 5 mps 769 mmHg 76%
    21:00 +13°C° 0 mm 6 mps 769 mmHg 77%
    22:00 +13°C° 0 mm 6 mps 769 mmHg 77%
    23:00 +11°C° 0 mm 6 mps 769 mmHg 78%

    3 June, Saturday

    Time Temperature Precipitation Wind Pressure Humidity
    00:00 +11°C° 0 mm 6 mps 768 mmHg 79%
    01:00 +11°C° 0 mm 6 mps 768 mmHg 79%
    02:00 +11°C° 0 mm 6 mps 768 mmHg 80%
    03:00 +11°C° 0 mm 6 mps 768 mmHg 81%
    04:00 +10°C° 0 mm 6 mps 768 mmHg 82%
    05:00 +10°C° 0 mm 6 mps 768 mmHg 82%
    06:00 +10°C° 0 mm 6 mps 768 mmHg 83%
    07:00 +10°C° 0 mm 6 mps 769 mmHg 83%
    08:00 +14°C° 0 mm 6 mps 768 mmHg 77%
    09:00 +16°C° 0 mm 6 mps 768 mmHg 72%
    10:00 +18°C° 0 mm 7 mps 768 mmHg 66%
    11:00 +20°C° 0 mm 7 mps 768 mmHg 64%
    12:00 +21°C° 0 mm 7 mps 767 mmHg 62%
    13:00 +22°C° 0 mm 7 mps 766 mmHg 60%
    14:00 +21°C° 0 mm 7 mps 766 mmHg 62%
    15:00 +21°C° 0 mm 6 mps 766 mmHg 64%
    16:00 +20°C° 0 mm 6 mps 766 mmHg 67%
    17:00 +19°C° 0 mm 6 mps 767 mmHg 72%
    18:00 +16°C° 0 mm 6 mps 767 mmHg 78%
    19:00 +15°C° 0 mm 6 mps 767 mmHg 83%
    20:00 +15°C° 0.1 mm 6 mps 767 mmHg 85%
    21:00 +14°C° 0.1 mm 6 mps 767 mmHg 86%
    22:00 +14°C° 0.1 mm 5 mps 767 mmHg 88%
    23:00 +14°C° 0.1 mm 5 mps 767 mmHg 88%

    4 June, Sunday

    Time Temperature Precipitation Wind Pressure Humidity
    00:00 +13°C° 0.1 mm 5 mps 767 mmHg 88%
    01:00 +13°C° 0.1 mm 5 mps 766 mmHg 88%
    02:00 +13°C° 0.1 mm 5 mps 766 mmHg 88%
    03:00 +13°C° 0.1 mm 5 mps 766 mmHg 87%
    04:00 +12°C° 0.1 mm 5 mps 766 mmHg 87%
    05:00 +12°C° 0.1 mm 5 mps 766 mmHg 86%
    06:00 +12°C° 0.1 mm 5 mps 767 mmHg 86%
    07:00 +12°C° 0.1 mm 5 mps 767 mmHg 86%
    08:00 +14°C° 0.1 mm 5 mps 767 mmHg 79%
    09:00 +16°C° 0.1 mm 5 mps 766 mmHg 72%
    10:00 +20°C° 0.1 mm 5 mps 766 mmHg 66%
    11:00 +21°C° 0 mm 6 mps 766 mmHg 62%
    12:00 +22°C° 0 mm 6 mps 765 mmHg 59%
    13:00 +22°C° 0 mm 6 mps 764 mmHg 56%
    14:00 +22°C° 0.1 mm 6 mps 764 mmHg 60%
    15:00 +21°C° 0.1 mm 6 mps 764 mmHg 64%
    16:00 +20°C° 0.1 mm 7 mps 764 mmHg 68%
    17:00 +19°C° 0.2 mm 6 mps 765 mmHg 75%
    18:00 +16°C° 0.2 mm 6 mps 765 mmHg 81%
    19:00 +15°C° 0.2 mm 5 mps 765 mmHg 88%
    20:00 +14°C° 0.1 mm 5 mps 766 mmHg 88%
    21:00 +14°C° 0.1 mm 5 mps 766 mmHg 89%
    22:00 +14°C° 0.1 mm 5 mps 766 mmHg 90%
    23:00 +13°C° 0 mm 5 mps 765 mmHg 90%
    Show more